HULIANWANG DIGUI 14H

Last updated on Wed Dec 10 2025 00:02:08 GMT+0000 (Coordinated Universal Time)

1 66922U 25285H 25343.50097100 -.00000166 00000+0 -80754-5 0 9999 2 66922 50.0078 130.4835 0006915 290.3386 69.6776 14.05997664 454
UTC large
Height (km)
Speed (km/s)
/
Latitude / Longitude
Inclination (degrees)
Orbital Period (minutes)
Azimuth
Elevation
Range (km)
Doppler Factor

Next 0 passes for location: London (51.5072 / 0.1276)

Sorry there are no passes over London.